TIABB MRAN-MRPM

Flight info

Callsign TIABB
Flight time N/A
Altitude 9000
Route ARENA DCT MIRAM/N0162F080 DCT PUXAS/N0158F090 DCT PARRI
Aircraft PA24/L-SDGRY/S

Departure

Time 2026-04-23 00:41
Airport La Fortuna Arenal Airport (MRAN)

Arrival

Time N/A
Airport Palmar Sur Airport (MRPM)
Time Latitude Longitude Altitude Speed Heading
2026-04-23 00:30 10.47096 -84.57577 345 ft 0 kts 238°
2026-04-23 00:38 10.47096 -84.57589 345 ft 5 kts 272°
2026-04-23 00:38 10.47095 -84.57594 345 ft 0 kts 239°
2026-04-23 00:38 10.47095 -84.57595 345 ft 0 kts 239°
2026-04-23 00:40 10.47094 -84.57596 345 ft 3 kts 239°
2026-04-23 00:40 10.46981 -84.57814 354 ft 63 kts 244°
2026-04-23 00:40 10.46755 -84.58247 579 ft 64 kts 241°
2026-04-23 00:40 10.46511 -84.58668 779 ft 69 kts 237°
2026-04-23 00:41 10.46251 -84.59082 995 ft 71 kts 238°
2026-04-23 00:41 10.45998 -84.59518 1214 ft 73 kts 239°
2026-04-23 00:41 10.45691 -84.59934 1432 ft 74 kts 215°
2026-04-23 00:41 10.45205 -84.60069 1651 ft 74 kts 171°
2026-04-23 00:42 10.44740 -84.59858 1882 ft 72 kts 143°
2026-04-23 00:42 10.44386 -84.59609 2090 ft 70 kts 143°
2026-04-23 00:42 10.43967 -84.59311 2324 ft 69 kts 143°
2026-04-23 00:42 10.43545 -84.59032 2526 ft 74 kts 144°
2026-04-23 00:43 10.43104 -84.58732 2727 ft 79 kts 146°
2026-04-23 00:43 10.42643 -84.58404 2925 ft 83 kts 144°
2026-04-23 00:43 10.42160 -84.58061 3120 ft 88 kts 147°
2026-04-23 00:43 10.41602 -84.57764 3317 ft 92 kts 157°
2026-04-23 00:44 10.41046 -84.57570 3493 ft 95 kts 163°
2026-04-23 00:44 10.40338 -84.57399 3717 ft 97 kts 168°
2026-04-23 00:44 10.39676 -84.57283 3933 ft 96 kts 171°
2026-04-23 00:44 10.39008 -84.57188 4151 ft 96 kts 172°
2026-04-23 00:45 10.38355 -84.57109 4365 ft 95 kts 173°
2026-04-23 00:45 10.37704 -84.57037 4579 ft 94 kts 174°
2026-04-23 00:45 10.37053 -84.56970 4795 ft 93 kts 174°
2026-04-23 00:45 10.36415 -84.56931 5009 ft 91 kts 182°
2026-04-23 00:46 10.35785 -84.56968 5224 ft 90 kts 183°
2026-04-23 00:46 10.35167 -84.57012 5438 ft 88 kts 184°
2026-04-23 00:46 10.34566 -84.57059 5651 ft 86 kts 184°
2026-04-23 00:46 10.33981 -84.57105 5863 ft 83 kts 184°
2026-04-23 00:47 10.33426 -84.57151 6072 ft 79 kts 184°
2026-04-23 00:47 10.32886 -84.57196 6283 ft 75 kts 185°
2026-04-23 00:47 10.32386 -84.57239 6487 ft 71 kts 185°
2026-04-23 00:47 10.31902 -84.57282 6662 ft 69 kts 185°
2026-04-23 00:48 10.31421 -84.57323 6828 ft 69 kts 185°
2026-04-23 00:48 10.30943 -84.57365 6988 ft 69 kts 185°
2026-04-23 00:48 10.30462 -84.57407 7147 ft 69 kts 185°
2026-04-23 00:48 10.29989 -84.57447 7296 ft 70 kts 185°
2026-04-23 00:49 10.29477 -84.57490 7441 ft 72 kts 185°
2026-04-23 00:49 10.28978 -84.57531 7594 ft 73 kts 185°
2026-04-23 00:49 10.28491 -84.57571 7743 ft 73 kts 185°
2026-04-23 00:49 10.27984 -84.57613 7897 ft 73 kts 185°
2026-04-23 00:50 10.27480 -84.57655 8047 ft 73 kts 185°
2026-04-23 00:50 10.26970 -84.57698 8197 ft 73 kts 185°
2026-04-23 00:50 10.26464 -84.57741 8344 ft 73 kts 185°
2026-04-23 00:50 10.25957 -84.57783 8488 ft 73 kts 185°
2026-04-23 00:51 10.25454 -84.57825 8630 ft 73 kts 185°
2026-04-23 00:51 10.24941 -84.57869 8773 ft 73 kts 185°
2026-04-23 00:51 10.24433 -84.57912 8912 ft 73 kts 185°
2026-04-23 00:51 10.23914 -84.57955 8994 ft 82 kts 185°
2026-04-23 00:52 10.23277 -84.58006 8982 ft 100 kts 184°
2026-04-23 00:52 10.22528 -84.58067 8975 ft 114 kts 184°
2026-04-23 00:52 10.21714 -84.58134 8971 ft 122 kts 184°
2026-04-23 00:52 10.20841 -84.58205 8969 ft 127 kts 184°
2026-04-23 00:53 10.19943 -84.58280 8968 ft 131 kts 184°
2026-04-23 00:53 10.19005 -84.58359 8967 ft 133 kts 184°
2026-04-23 00:53 10.18115 -84.58434 8964 ft 125 kts 185°
2026-04-23 00:53 10.17274 -84.58504 8964 ft 120 kts 184°
2026-04-23 00:54 10.16423 -84.58576 8968 ft 123 kts 184°
2026-04-23 00:54 10.15564 -84.58648 8967 ft 125 kts 184°
2026-04-23 00:54 10.14673 -84.58738 8967 ft 126 kts 187°
2026-04-23 00:54 10.13804 -84.58856 8967 ft 127 kts 187°
2026-04-23 00:55 10.12941 -84.58977 8967 ft 127 kts 187°
2026-04-23 00:55 10.12059 -84.59100 8967 ft 128 kts 187°
2026-04-23 00:55 10.11173 -84.59225 8967 ft 128 kts 187°
2026-04-23 00:55 10.10288 -84.59351 8967 ft 128 kts 187°
2026-04-23 00:56 10.09398 -84.59476 8967 ft 128 kts 187°
2026-04-23 00:56 10.08525 -84.59600 8967 ft 128 kts 188°
2026-04-23 00:56 10.07608 -84.59730 8967 ft 128 kts 188°
2026-04-23 00:56 10.06725 -84.59855 8966 ft 128 kts 188°
2026-04-23 00:57 10.05849 -84.59979 8966 ft 128 kts 188°
2026-04-23 00:57 10.04941 -84.60107 8966 ft 128 kts 188°
2026-04-23 00:57 10.04047 -84.60234 8966 ft 128 kts 188°
2026-04-23 00:57 10.03169 -84.60358 8966 ft 128 kts 188°
2026-04-23 00:58 10.02275 -84.60485 8966 ft 128 kts 188°
2026-04-23 00:58 10.01390 -84.60610 8966 ft 128 kts 188°
2026-04-23 00:58 10.00498 -84.60736 8966 ft 128 kts 188°
2026-04-23 00:58 9.99607 -84.60862 8966 ft 128 kts 188°
2026-04-23 00:59 9.98717 -84.60989 8966 ft 128 kts 188°
2026-04-23 00:59 9.97828 -84.61114 8966 ft 128 kts 188°
2026-04-23 00:59 9.96943 -84.61240 8966 ft 128 kts 188°
2026-04-23 00:59 9.96075 -84.61363 8966 ft 128 kts 188°
2026-04-23 01:00 9.95266 -84.61478 8966 ft 128 kts 188°
2026-04-23 01:00 9.94359 -84.61606 8966 ft 128 kts 188°
2026-04-23 01:00 9.93465 -84.61732 8966 ft 128 kts 188°
2026-04-23 01:00 9.92567 -84.61860 8966 ft 128 kts 188°
2026-04-23 01:01 9.91684 -84.61985 8966 ft 128 kts 188°
2026-04-23 01:01 9.90896 -84.62096 8966 ft 128 kts 188°
2026-04-23 01:01 9.89982 -84.62225 8966 ft 128 kts 188°
2026-04-23 01:01 9.89152 -84.62343 8966 ft 128 kts 188°
2026-04-23 01:02 9.88455 -84.62441 8966 ft 128 kts 188°